Lenoir, NC

3:59 AM EST on December 04, 2016 (GMT -0500)
Morganton-Lenoir

Weather History for KMRN - November, 2013

Change the Weather History Date:

Friday, November 15, 2013

  Actual Average (KHKY) Record (KHKY)
Temperature  
Mean Temperature 38 °F -  
Max Temperature 53 °F 60 °F 78 °F (1953)
Min Temperature 24 °F 37 °F 18 °F (1969)
Degree Days  
Heating Degree Days 26    
Moisture  
Dew Point 30 °F    
Average Humidity 73    
Maximum Humidity 100    
Minimum Humidity 33    
Precipitation  
Precipitation 0.01 in - - ()
Sea Level Pressure  
Sea Level Pressure 30.31 in    
Wind  
Wind Speed 0 mph (NW)    
Max Wind Speed 5 mph    
Max Gust Speed -    
Visibility 9 miles    
Events Rain    
Averages and records for this station are not official NWS values.
T = Trace of Precipitation, MM = Missing Value Source: NWS Daily Summary

Daily Weather History Graph

Daily Weather History Graph

Search for Another Location

Airport or City:

Trip Planner

Search our weather history database for the weather conditions in past years. The results will help you decide how hot, cold, wet, or windy it might be!

Date:

Astronomy

Nov. 15, 2013 Rise Set
Actual Time 7:02 AM EST 5:19 PM EST
Civil Twilight 6:35 AM EST 5:46 PM EST
Nautical Twilight 6:04 AM EST 6:17 PM EST
Astronomical Twilight 5:34 AM EST 6:47 PM EST
Moon 4:12 PM EST (11/15) 5:01 AM EST (11/15)
Length of Visible Light 11h 10m
Length of Day
10h 16m
Waxing Gibbous, 96% of the Moon is Illuminated
Nov 15
Waxing Gibbous
Nov 17
Full
Nov 25
Last Quarter
Dec 2
New
Dec 9
First Quarter

Hourly Weather History & Observations

Time (EST) Temp. Windchill Dew Point Humidity Pressure Visibility Wind Dir Wind Speed Gust Speed Precip Events Conditions
12:15 AM 29.7 °F - 23.5 °F 78% 30.35 in 10.0 mi Calm Calm - N/A   Clear
12:35 AM 28.6 °F - 23.2 °F 80% 30.36 in 10.0 mi Calm Calm - N/A   Clear
12:55 AM 28.2 °F - 23.5 °F 83% 30.36 in 10.0 mi Calm Calm - N/A   Clear
1:15 AM 25.7 °F - 22.6 °F 88% 30.34 in 10.0 mi Calm Calm - N/A   Clear
1:35 AM 26.8 °F - 22.6 °F 84% 30.34 in 10.0 mi Calm Calm - N/A   Clear
1:55 AM 25.5 °F - 22.3 °F 88% 30.33 in 10.0 mi Calm Calm - N/A   Clear
2:15 AM 26.8 °F 22.8 °F 23.7 °F 88% 30.34 in 10.0 mi WNW 3.5 mph - N/A   Clear
2:35 AM 27.0 °F - 23.4 °F 86% 30.35 in 10.0 mi Calm Calm - N/A   Clear
2:55 AM 25.3 °F - 22.6 °F 89% 30.34 in 10.0 mi Calm Calm - N/A   Clear
3:15 AM 24.8 °F - 22.6 °F 91% 30.34 in 10.0 mi Calm Calm - N/A   Clear
3:35 AM 25.0 °F - 23.0 °F 92% 30.33 in 10.0 mi Calm Calm - N/A   Clear
3:55 AM 26.2 °F - 23.7 °F 90% 30.33 in 10.0 mi Calm Calm - N/A   Clear
4:15 AM 25.7 °F - 23.7 °F 92% 30.32 in 10.0 mi Calm Calm - N/A   Clear
4:35 AM 25.0 °F - 23.2 °F 93% 30.33 in 10.0 mi Calm Calm - N/A   Clear
4:55 AM 24.8 °F - 23.0 °F 93% 30.33 in 10.0 mi Calm Calm - N/A   Clear
5:15 AM 25.5 °F - 23.7 °F 93% 30.33 in 10.0 mi Calm Calm - N/A   Clear
5:35 AM 25.7 °F - 23.9 °F 93% 30.33 in 10.0 mi Calm Calm - N/A   Clear
5:55 AM 25.5 °F - 23.9 °F 94% 30.33 in 10.0 mi Calm Calm - N/A   Clear
6:15 AM 26.6 °F - 25.2 °F 94% 30.33 in 10.0 mi Calm Calm - N/A   Clear
6:35 AM 27.1 °F - 25.5 °F 94% 30.33 in 10.0 mi Calm Calm - N/A   Clear
6:55 AM 28.8 °F 25.0 °F 25.5 °F 88% 30.34 in 10.0 mi NW 3.5 mph - N/A   Clear
7:15 AM 28.4 °F - 25.2 °F 88% 30.35 in 10.0 mi Calm Calm - N/A   Clear
7:35 AM 28.9 °F - 26.4 °F 90% 30.35 in 10.0 mi Calm Calm - N/A   Clear
7:55 AM 30.6 °F - 27.1 °F 87% 30.36 in 10.0 mi Calm Calm - N/A   Clear
8:15 AM 32.0 °F - 27.0 °F 82% 30.37 in 10.0 mi Calm Calm - N/A   Scattered Clouds
8:35 AM 32.9 °F - 26.6 °F 78% 30.37 in 10.0 mi Calm Calm - N/A   Scattered Clouds
8:55 AM 34.3 °F - 27.5 °F 76% 30.37 in 10.0 mi Calm Calm - N/A   Scattered Clouds
9:15 AM 36.9 °F - 28.2 °F 71% 30.37 in 10.0 mi Calm Calm - N/A   Mostly Cloudy
9:35 AM 39.0 °F - 27.7 °F 64% 30.37 in 10.0 mi Calm Calm - N/A   Scattered Clouds
9:55 AM 41.9 °F - 26.4 °F 54% 30.36 in 10.0 mi Calm Calm - N/A   Clear
10:15 AM 43.5 °F - 23.4 °F 45% 30.37 in 10.0 mi Calm Calm - N/A   Scattered Clouds
10:35 AM 45.0 °F - 24.8 °F 45% 30.36 in 10.0 mi Calm Calm - N/A   Scattered Clouds
10:55 AM 47.7 °F - 24.1 °F 40% 30.36 in 10.0 mi Calm Calm - N/A   Overcast
11:15 AM 48.0 °F - 28.9 °F 48% 30.35 in 10.0 mi Calm Calm - N/A   Overcast
11:35 AM 47.7 °F - 28.8 °F 48% 30.34 in 10.0 mi Calm Calm - N/A   Overcast
11:55 AM 49.6 °F - 26.6 °F 41% 30.33 in 10.0 mi Calm Calm - N/A   Mostly Cloudy
12:15 PM 50.2 °F - 26.2 °F 39% 30.32 in 10.0 mi Calm Calm - N/A   Mostly Cloudy
12:35 PM 50.9 °F - 24.3 °F 35% 30.31 in 10.0 mi Calm Calm - N/A   Overcast
12:55 PM 52.0 °F - 23.2 °F 33% 30.29 in 10.0 mi NW 3.5 mph - N/A   Overcast
1:15 PM 51.4 °F - 24.6 °F 35% 30.29 in 10.0 mi Calm Calm - N/A   Overcast
1:35 PM 51.6 °F - 24.8 °F 35% 30.28 in 10.0 mi Calm Calm - N/A   Overcast
1:55 PM 52.0 °F - 24.6 °F 35% 30.27 in 10.0 mi NW 3.5 mph - N/A   Overcast
2:15 PM 52.2 °F - 25.5 °F 36% 30.27 in 10.0 mi NNW 3.5 mph - N/A   Overcast
2:35 PM 52.9 °F - 25.7 °F 35% 30.26 in 10.0 mi NNW 3.5 mph - N/A   Overcast
2:55 PM 53.1 °F - 26.2 °F 35% 30.26 in 10.0 mi NW 4.6 mph - N/A   Overcast
3:15 PM 52.7 °F - 28.9 °F 40% 30.26 in 10.0 mi WNW 3.5 mph - N/A   Overcast
3:35 PM 52.5 °F - 30.6 °F 43% 30.26 in 10.0 mi Calm Calm - N/A   Overcast
3:55 PM 52.7 °F - 30.4 °F 42% 30.26 in 10.0 mi Calm Calm - N/A   Overcast
4:15 PM 52.2 °F - 31.1 °F 45% 30.26 in 10.0 mi Calm Calm - N/A   Overcast
4:35 PM 52.0 °F - 31.1 °F 45% 30.25 in 10.0 mi Calm Calm - N/A   Overcast
4:55 PM 51.6 °F - 32.0 °F 47% 30.26 in 10.0 mi Calm Calm - N/A   Overcast
5:15 PM 50.9 °F - 33.3 °F 51% 30.26 in 10.0 mi Calm Calm - N/A   Overcast
5:35 PM 50.5 °F - 33.8 °F 53% 30.25 in 10.0 mi Calm Calm - N/A   Overcast
5:55 PM 50.0 °F - 35.1 °F 57% 30.26 in 10.0 mi Calm Calm - N/A   Overcast
6:15 PM 49.3 °F - 34.3 °F 56% 30.27 in 10.0 mi West 3.5 mph - N/A   Overcast
6:35 PM 48.2 °F - 37.8 °F 67% 30.26 in 10.0 mi Calm Calm - N/A Rain Light Rain
6:55 PM 47.3 °F - 39.2 °F 73% 30.27 in 10.0 mi Calm Calm - N/A Rain Rain
7:15 PM 45.9 °F - 42.8 °F 89% 30.27 in 10.0 mi Calm Calm - N/A   Drizzle
7:35 PM 45.9 °F - 43.7 °F 92% 30.27 in 5.0 mi Calm Calm - N/A Rain Rain
7:55 PM 45.1 °F - 44.2 °F 97% 30.27 in 5.0 mi Calm Calm - N/A Rain Light Rain
8:15 PM 45.0 °F - 44.6 °F 99% 30.28 in 4.0 mi Calm Calm - N/A Rain Rain
8:35 PM 44.6 °F - 44.2 °F 99% 30.28 in 4.0 mi Calm Calm - 0.01 in Rain Rain
8:55 PM 45.0 °F - 44.8 °F 99% 30.28 in 2.5 mi Calm Calm - 0.01 in Rain Rain
9:15 PM 45.5 °F - 45.5 °F 100% 30.28 in 2.5 mi Calm Calm - N/A Rain Rain
9:35 PM 45.1 °F - 45.1 °F 100% 30.27 in 1.2 mi Calm Calm - N/A Rain Light Rain
9:55 PM 45.5 °F - 45.5 °F 100% 30.28 in 3.0 mi Calm Calm - N/A   Overcast
10:15 PM 45.3 °F - 45.3 °F 100% 30.29 in 2.5 mi Calm Calm - N/A   Overcast
10:35 PM 45.5 °F - 45.5 °F 100% 30.28 in 4.0 mi Calm Calm - N/A   Overcast
10:55 PM 45.3 °F - 45.3 °F 100% 30.28 in 3.0 mi Calm Calm - N/A   Overcast
11:15 PM 45.1 °F - 45.1 °F 100% 30.28 in 3.0 mi Calm Calm - N/A   Drizzle
11:35 PM 45.5 °F - 45.5 °F 100% 30.28 in 2.5 mi Calm Calm - N/A   Overcast
11:55 PM 45.1 °F - 45.1 °F 100% 30.28 in 2.0 mi Calm Calm - N/A   Overcast